Current Weather Conditions: station 62136

sailwx.info

Wind from 270

Visibility: greater than 2.2 NM

Last reported at 2019-Mar-20 08:00 UTC.
Time now 2019-Mar-20 09:52 UTC

Location: N 54°24' E 002°36'.
View on Google Maps.

See reports from other nearby stations

  
Tides and Currents Weather Stations Pressure Air Temp Water Temp Dewpoint Dewpoint Depression Visibility Wind Speed Wind Dir Waves Ship Positions
date/time (UTC)wind fromknots sea level pressurealtimeterstation pressurevisibilityair tempwater tempwave heightnotes
2019-Mar-20 08:00 270 2.2
2019-Mar-20 07:00 270 2.2
2019-Mar-20 06:00 270 2.2
2019-Mar-20 05:00 260 5.4
2019-Mar-20 04:00 260 5.4
2019-Mar-20 03:00 270 5.4
2019-Mar-20 02:00 260 5.4
2019-Mar-20 01:00 240 5.4
2019-Mar-20 00:00 220 5.4
2019-Mar-19 23:00 210 5.4
2019-Mar-19 22:00 210 5.4
2019-Mar-19 21:00 200 5.4
2019-Mar-19 20:00 200 5.4
2019-Mar-19 19:00 190 2.2
2019-Mar-19 18:00 190 0.1
2019-Mar-19 17:00 200 0.0
2019-Mar-19 16:00 200 2.2
2019-Mar-19 15:00 220 2.2
2019-Mar-19 14:00 190 5.4
2019-Mar-19 13:00 190 5.4
2019-Mar-19 12:00 190 5.4
2019-Mar-19 11:00 180 10.8
2019-Mar-19 10:00 170 10.8
2019-Mar-19 09:00 160 10.8
2019-Mar-19 08:00 160 10.8
2019-Mar-19 07:00 150 10.8
2019-Mar-19 06:00 160 10.8
2019-Mar-19 05:00 160 10.8
2019-Mar-19 04:00 170 10.8
2019-Mar-19 03:00 180 10.8
2019-Mar-19 02:00 200 10.8
2019-Mar-19 01:00 240 10.8
2019-Mar-19 00:00 240 10.8
2019-Mar-18 23:00 280 10.8
2019-Mar-18 22:00 290 10.8
2019-Mar-18 21:00 320 10.8
2019-Mar-18 20:00 330 10.8
2019-Mar-18 19:00 330 10.8
2019-Mar-18 18:00 340 10.8
2019-Mar-18 17:00 330 10.8
2019-Mar-18 16:00 320 10.8
2019-Mar-18 15:00 320 10.8
2019-Mar-18 14:00 320 10.8
2019-Mar-18 13:00 330 10.8
2019-Mar-18 12:00 320 10.8
2019-Mar-18 11:00 340 5.4
2019-Mar-18 10:00 340 10.8
2019-Mar-18 09:00 320 10.8